Tracking 27122 objects as of 25-Mar-2023
HD Live streaming from Space Station
objects crossing your sky now

OPS 7684 DEB

Track OPS 7684 DEB now!
10-day predictions


NORAD ID: 3618
Int'l Code: 1968-112D
Perigee: 1,381.8 km
Apogee: 1,513.2 km
Inclination: 80.5 °
Period: 114.7 minutes
Semi major axis: 7818 km
RCS: 0.0651 m2 (small)
Launch date: December 12, 1968
Source: United States (US)
Launch site: AIR FORCE WESTERN TEST RANGE (AFWTR)

Note: This is SATELLITE DEBRIS
Your satellite tracking list
Your tracking list is empty




NASA's NSSDC Master Catalog

Two Line Element Set (TLE):
1  3618U 68112D   23084.40714041  .00000047  00000-0  24190-3 0  9994
2  3618  80.5326  67.1450 0084016 170.9668 342.5773 12.55796462487415
Source of the keplerian elements: AFSPC